Temperature
14 13 13 13 13 13 13 12 12 12 12 12 12 11 11 11 11 11 11 11 11 11 11 11 11 11 11 11 10 10 10 10 10 10 11 10 10 11 10 10 10 10 10
13 13 13 13 13 12 12 12 12 12 12 11 11 11 11 11 11 11 11 10 10 10 10 10 10 10 10 10 10 10 10 10 10 10 10 10 10 10 10 10 10 10 10
13 12 12 12 12 12 12 12 12 11 11 11 11 11 11 10 10 10 10 10 10 10 10 10 10 10 10 10 10 10 10 10 10 9 10 10 10 10 10 10 10 10 10
12 12 12 12 12 11 11 11 11 11 11 11 11 10 10 10 10 10 10 10 10 10 9 9 9 9 9 9 9 9 9 9 9 9 9 9 9 9 9 9 9 9 9
12 11 11 11 11 11 11 11 11 11 10 10 10 10 10 10 10 9 9 9 9 9 9 9 9 9 9 9 9 9 9 9 9 9 8 8 9 9 9 9 9 9 9
11 11 11 11 11 10 10 10 10 10 10 10 10 10 9 9 9 9 9 9 9 9 9 9 8 8 8 8 8 8 8 8 8 8 8 8 8 8 8 8 8 8 8
11 10 10 10 10 10 10 10 10 10 9 9 9 9 9 9 9 8 8 8 8 8 8 8 8 8 8 8 8 8 8 8 8 8 8 8 8 8 8 8 8 8 8
10 10 10 10 10 9 9 9 9 9 9 9 8 8 8 8 8 8 8 8 8 8 7 7 7 7 7 7 7 7 7 7 7 7 7 7 8 8 8 8 8 8 8
9 9 9 9 9 9 9 9 9 8 8 8 8 8 8 8 8 7 7 7 7 7 7 7 7 7 7 7 7 7 7 7 7 7 7 7 7 7 7 7 7 7 7
9 9 9 8 8 8 8 8 8 8 8 8 8 7 7 7 7 7 7 7 7 7 7 7 6 6 6 6 6 6 7 7 7 7 7 7 7 7 7 7 7 7 7
8 8 8 8 8 7 7 7 7 7 7 7 7 7 7 7 7 7 6 6 6 6 6 6 6 6 6 6 6 6 6 6 6 6 6 6 6 7 7 7 7 6 6
8 8 8 7 7 7 7 7 7 6 6 6 6 6 7 6 6 6 6 6 6 6 6 6 6 6 5 5 5 5 5 5 5 6 6 6 6 6 6 6 6 6 6
7 7 7 7 7 6 6 6 6 6 6 6 6 6 6 6 6 6 5 5 5 5 5 5 5 5 5 5 5 5 5 5 5 5 5 5 5 5 5 5 5 5 5
7 7 6 6 6 6 6 6 5 5 5 5 5 5 5 5 5 5 5 5 5 5 5 5 4 4 4 4 4 4 4 4 4 5 5 5 5 5 5 5 5 5 5
7 6 6 6 5 5 5 5 5 5 5 4 4 4 4 4 4 4 4 4 4 4 4 4 4 4 4 4 4 4 4 4 4 4 4 4 4 4 4 5 4 4 4
6 6 5 5 5 5 5 5 4 4 4 4 4 4 4 4 4 4 4 4 4 4 4 4 4 3 3 4 4 3 4 4 4 4 4 4 4 4 4 4 4 4 4
5 5 5 5 4 4 4 4 4 4 4 4 4 3 3 3 3 3 4 4 4 3 3 3 3 3 3 3 3 3 3 3 3 3 3 3 3 3 3 3 4 4 4
5 4 4 4 4 4 4 4 3 3 3 4 3 3 3 3 3 3 3 3 3 3 3 3 3 3 3 3 3 3 3 3 3 3 3 3 3 3 3 3 3 3 3
4 4 4 4 3 3 3 3 3 3 3 3 3 3 2 2 2 2 2 2 2 2 2 2 3 3 3 3 3 3 3 3 3 3 3 3 3 3 3 3 3 3 3
4 3 3 3 3 3 3 3 3 2 2 2 2 2 2 2 2 2 2 2 2 2 2 2 2 2 2 2 2 2 2 2 3 3 3 3 2 2 2 2 2 2 3
3 3 3 3 3 3 2 2 2 2 2 2 2 2 2 1 1 1 1 1 1 1 1 2 2 2 2 2 2 2 2 2 2 2 2 2 2 2 2 2 2 2 2
3 3 3 2 2 2 2 2 2 2 2 1 1 1 1 1 1 1 1 1 1 1 1 1 1 1 1 1 1 2 2 2 2 2 2 2 2 2 2 2 2 2 2
2 2 2 2 2 2 2 2 1 1 1 1 1 1 1 1 1 1 1 0 1 1 1 1 1 1 1 1 1 1 1 1 1 1 1 1 1 2 2 2 2 2 2
2 2 2 1 1 1 1 1 1 1 1 1 1 0 0 0 0 0 0 0 0 0 1 1 1 1 1 1 1 1 1 1 1 1 1 1 1 1 1 1 1 1 1
1 1 1 1 1 1 1 1 1 0 0 0 0 0 0 -0 -0 -0 -0 -0 0 0 0 0 0 0 1 1 1 1 1 1 1 1 1 1 1 1 1 1 1 1 1
1 1 1 1 1 1 0 0 0 -0 -0 -0 -0 -0 -0 -0 -0 -0 -0 -0 -0 -0 -0 -0 0 0 0 0 0 0 0 1 1 1 1 1 1 1 1 1 1 1 1
Wind_Speed
2 2 2 1 1 1 1 2 2 1 1 1 2 1 1 1 1 1 1 1 1 2 2 2 3 2 2 2 2 2 2 3 4 3 1 1 1 1 1 1 2 2 3
2 2 2 1 1 1 1 2 1 1 1 1 1 1 1 1 1 1 2 1 2 2 3 2 3 2 2 2 2 2 3 3 4 3 2 1 2 2 1 1 1 2 2
2 2 1 1 1 1 2 1 1 1 1 1 1 2 2 2 2 2 2 2 2 2 2 3 3 2 3 2 2 2 2 2 3 3 2 1 1 1 1 1 2 2 2
1 1 1 1 2 2 2 1 1 1 1 1 2 2 2 3 2 2 2 2 2 2 2 2 2 2 3 3 3 3 2 2 2 2 2 1 1 1 0 0 1 2 2
1 1 1 1 1 1 1 1 1 1 2 2 2 2 2 3 3 2 2 2 2 2 2 2 3 3 4 3 2 2 2 2 2 2 2 1 1 1 1 1 2 1 2
1 1 1 0 0 1 1 1 1 1 2 2 2 2 3 3 4 4 2 2 2 2 3 3 4 3 4 4 4 3 3 3 3 3 3 3 4 3 2 2 1 1 2
1 0 0 0 1 1 1 1 1 2 2 2 3 3 4 5 5 4 4 2 2 2 3 3 3 3 4 3 3 3 3 4 4 4 4 4 4 4 3 3 3 3 3
1 0 1 1 1 2 1 2 2 2 2 2 3 3 4 5 6 5 4 1 2 3 4 4 4 4 4 3 2 2 3 3 4 3 4 5 5 4 5 5 5 3 1
0 1 1 1 1 2 2 2 2 2 2 3 3 3 4 6 6 6 4 2 2 3 4 4 4 4 5 4 2 2 3 4 4 4 5 5 5 4 3 2 2 2 2
1 1 1 1 1 1 2 2 2 2 2 3 3 3 4 5 6 6 4 2 2 3 4 4 5 6 6 5 3 3 4 4 3 3 3 3 2 2 3 3 4 4 2
1 0 1 1 1 1 1 2 2 2 3 3 3 4 4 5 6 6 5 2 3 3 3 4 4 7 7 6 4 4 5 4 3 3 2 2 2 1 1 1 2 4 4
1 1 1 2 2 2 2 2 2 2 2 3 3 4 4 5 5 6 6 5 4 3 3 4 4 6 6 5 4 4 5 3 2 2 2 2 2 2 2 1 2 2 3
1 0 1 2 2 2 1 2 3 2 2 3 3 4 4 4 5 7 6 6 5 3 3 5 5 5 4 3 4 4 3 2 1 2 3 3 3 2 1 1 1 0 0
1 1 1 1 2 2 2 2 2 2 3 3 3 4 4 4 4 4 3 3 3 3 3 3 4 3 2 3 3 2 2 2 2 3 3 3 2 1 2 2 2 2 1
1 1 1 1 1 2 2 2 3 3 4 4 4 4 4 4 6 7 5 3 2 2 2 1 1 2 2 2 2 2 2 2 2 2 2 2 2 2 2 2 2 1 2
1 1 1 2 2 2 2 4 5 5 7 7 7 6 5 6 8 7 7 6 5 3 1 1 2 2 3 3 3 3 3 3 3 2 3 3 3 3 3 2 2 2 3
2 2 2 2 1 2 2 2 4 6 7 7 7 7 6 7 7 7 6 5 4 2 1 2 2 3 3 3 3 3 3 4 3 3 3 3 3 3 3 3 3 3 3
1 2 2 2 2 2 2 3 3 3 4 5 6 7 7 7 7 6 5 3 2 2 2 3 3 3 3 3 4 3 3 3 3 3 3 3 3 3 3 3 3 3 3
1 2 2 2 2 2 2 2 3 3 3 4 4 5 6 6 6 6 4 1 2 3 3 3 3 3 3 4 4 3 3 3 3 3 3 3 3 3 3 3 3 4 4
2 2 2 1 1 1 2 2 3 3 3 3 4 4 4 4 3 3 3 2 2 3 3 3 3 3 3 3 3 3 3 3 3 3 3 3 3 3 3 4 4 3 3
1 2 2 1 1 2 2 2 2 2 3 3 3 4 5 3 3 3 3 3 3 3 3 3 3 3 3 3 3 3 4 3 3 3 3 3 3 3 3 3 3 3 3
1 1 1 2 2 2 2 2 2 2 3 3 3 4 5 3 2 3 3 4 4 3 3 3 3 3 3 3 3 3 3 4 3 3 3 3 3 3 2 2 3 3 3
1 1 1 1 1 2 2 2 2 2 2 3 3 3 3 3 3 3 4 4 4 3 3 3 3 3 4 4 3 3 3 4 4 4 3 3 3 3 3 3 3 3 4
1 1 1 1 1 1 1 2 2 2 2 3 3 3 3 3 3 3 3 3 4 4 3 3 3 5 5 5 4 4 4 5 5 4 4 3 3 3 3 3 3 4 4
1 1 1 1 1 1 1 1 2 2 2 3 3 3 3 3 4 4 3 3 4 4 4 4 4 5 6 6 5 5 6 6 6 5 4 3 3 3 3 3 3 3 3
1 1 1 1 1 1 1 2 2 2 2 3 3 3 3 3 4 4 4 4 4 4 5 4 6 6 7 6 7 7 7 7 7 6 4 3 2 3 3 3 3 3 3
Wind_Direction
185 174 157 187 198 162 214 249 250 274 287 222 225 239 266 276 270 240 264 277 270 280 282 266 268 257 240 239 224 212 214 205 241 272 257 283 267 271 291 258 264 267 274
187 162 169 184 144 146 245 263 257 243 282 264 235 238 255 270 257 250 270 286 266 278 286 285 284 282 263 250 229 227 229 218 217 253 285 274 257 273 292 299 288 273 266
151 155 170 185 184 214 244 260 259 252 284 304 239 236 247 250 247 248 240 260 262 267 274 271 279 278 273 261 241 237 240 239 218 216 260 258 264 305 354 335 326 310 292
125 140 183 222 222 229 236 242 251 249 256 265 259 251 250 243 233 242 241 255 271 277 278 272 274 265 263 261 246 238 234 235 225 220 243 266 256 289 125 271 312 308 305
132 145 241 254 234 233 250 265 271 268 273 265 264 271 262 248 240 237 232 248 255 278 293 288 280 277 275 264 265 247 226 228 226 224 234 251 253 220 237 218 234 291 303
153 194 251 343 335 282 280 272 280 289 289 289 279 276 281 278 283 264 251 229 241 254 275 287 292 291 298 292 284 270 238 228 224 221 235 239 251 236 233 214 200 220 278
144 168 332 355 339 319 324 335 295 282 289 290 284 281 284 283 286 272 256 235 239 254 263 275 290 296 303 282 295 302 283 269 239 217 224 235 244 233 220 219 212 211 236
115 353 335 356 340 335 342 327 307 291 281 274 278 280 284 290 296 283 266 243 251 263 262 256 259 274 276 280 279 293 287 281 267 244 228 237 242 231 213 218 221 219 251
102 298 297 295 314 322 314 303 305 305 294 284 283 284 285 291 297 288 283 244 258 268 267 266 262 259 276 285 270 265 281 287 285 272 260 259 262 247 222 184 193 194 243
246 271 290 294 297 293 296 300 308 303 290 297 299 292 284 284 294 296 285 249 256 271 276 272 271 269 274 274 245 237 260 273 275 289 301 297 296 254 228 203 199 206 219
243 330 343 333 305 286 309 316 321 325 324 314 307 306 298 296 301 299 291 259 244 259 272 271 261 271 273 268 258 235 247 259 251 246 263 281 300 296 279 231 206 204 209
87 47 342 329 323 336 329 325 328 330 324 314 313 313 308 305 307 302 297 283 275 253 261 263 266 276 273 271 263 258 260 264 241 235 241 252 253 258 265 266 230 216 212
93 6 318 331 335 335 325 327 327 316 304 302 301 298 304 307 307 306 298 291 287 279 269 276 282 290 289 273 255 264 264 243 229 236 244 251 245 243 265 293 298 246 319
151 262 299 312 320 329 322 313 310 302 300 298 291 288 295 301 301 299 293 285 282 290 294 291 300 302 293 266 269 267 245 226 229 236 246 252 239 234 244 239 243 258 267
188 249 289 293 290 310 311 295 291 274 279 290 277 269 277 287 290 299 300 284 267 258 293 304 301 296 293 286 281 273 264 258 252 241 238 250 244 239 249 239 226 228 236
209 254 264 277 289 300 312 321 314 311 315 312 309 303 291 295 308 307 299 291 282 269 297 277 267 262 262 260 254 258 256 251 246 245 241 237 237 234 245 247 229 225 236
218 240 251 261 281 294 303 309 315 324 326 321 318 316 311 313 315 311 303 300 291 267 270 268 270 261 259 259 254 248 251 250 245 241 241 236 234 236 234 232 234 230 236
228 251 259 250 258 269 278 284 288 298 315 320 324 324 322 318 318 318 316 328 318 299 280 274 275 278 270 262 260 258 259 258 248 242 240 234 227 228 231 236 235 232 232
230 249 249 254 260 269 280 288 293 296 301 311 323 327 329 330 334 337 341 326 284 283 286 285 282 284 281 273 266 262 257 255 255 251 245 234 226 223 232 236 234 235 231
235 268 290 260 258 278 284 287 292 297 305 309 311 314 328 338 332 332 332 315 297 291 293 293 292 290 292 289 281 270 263 259 255 250 251 244 233 224 229 234 230 229 230
230 260 291 291 253 255 266 273 278 282 290 297 302 312 323 321 314 318 319 314 301 293 293 294 295 299 295 294 288 281 270 265 260 254 250 244 238 233 231 230 232 226 224
209 230 238 246 254 258 272 272 280 284 290 297 307 316 320 322 316 315 310 308 305 298 294 295 295 291 285 285 290 290 286 284 279 271 262 252 243 237 233 231 232 228 222
189 213 240 256 250 270 292 289 288 290 293 298 306 315 319 315 310 309 307 308 310 307 303 293 294 297 292 284 278 272 279 279 276 269 260 250 247 242 238 236 232 231 227
179 199 223 243 257 250 261 279 287 293 298 301 305 309 311 311 309 309 311 313 312 308 306 300 296 300 304 301 289 278 274 276 275 263 261 255 246 243 234 234 230 230 229
162 182 214 233 254 264 269 283 288 291 296 300 303 306 309 312 313 314 314 311 311 311 311 307 304 304 303 303 302 297 300 300 295 281 258 251 257 244 231 225 222 219 217
152 180 230 262 270 269 267 273 281 290 295 300 302 306 309 313 315 317 318 317 315 313 312 307 307 306 305 304 303 305 307 307 305 297 270 247 257 252 233 221 220 216 214
Height
1523 1524 1524 1524 1525 1524 1524 1524 1524 1523 1523 1523 1522 1522 1521 1521 1520 1519 1518 1518 1517 1516 1515 1515 1514 1513 1513 1513 1512 1512 1512 1512 1510 1509 1509 1509 1509 1509 1509 1509 1509 1509 1508
1521 1522 1522 1522 1522 1521 1521 1521 1521 1521 1520 1520 1519 1519 1518 1518 1517 1516 1516 1515 1514 1513 1512 1511 1510 1510 1510 1509 1509 1508 1508 1508 1508 1506 1506 1506 1506 1506 1506 1506 1506 1506 1506
1519 1519 1519 1519 1519 1519 1519 1519 1518 1518 1517 1517 1516 1516 1515 1514 1514 1513 1512 1512 1511 1510 1509 1508 1507 1507 1506 1506 1505 1505 1505 1505 1504 1504 1503 1503 1503 1504 1503 1503 1503 1503 1503
1516 1516 1516 1516 1516 1516 1516 1516 1515 1515 1514 1513 1513 1512 1512 1511 1510 1510 1509 1508 1507 1506 1506 1505 1504 1503 1503 1502 1502 1501 1501 1501 1501 1501 1500 1500 1500 1500 1500 1500 1500 1500 1500
1514 1514 1514 1514 1514 1513 1513 1513 1512 1511 1511 1510 1509 1509 1508 1507 1507 1506 1505 1504 1503 1503 1502 1501 1501 1500 1499 1499 1499 1498 1498 1497 1497 1497 1497 1497 1496 1496 1497 1497 1497 1497 1497
1512 1512 1512 1511 1511 1510 1510 1509 1508 1508 1507 1506 1505 1505 1504 1504 1503 1502 1502 1501 1500 1499 1498 1497 1497 1496 1496 1496 1495 1495 1495 1494 1494 1494 1493 1493 1493 1494 1494 1494 1494 1494 1493
1509 1509 1509 1508 1508 1507 1507 1506 1505 1504 1503 1502 1502 1501 1500 1500 1499 1499 1498 1497 1496 1495 1494 1493 1493 1492 1492 1491 1491 1491 1491 1491 1491 1491 1490 1490 1490 1490 1490 1490 1490 1490 1490
1507 1507 1506 1506 1505 1504 1503 1502 1502 1500 1499 1498 1498 1497 1496 1496 1495 1495 1494 1493 1492 1491 1490 1489 1488 1488 1487 1487 1487 1486 1486 1486 1487 1486 1486 1486 1486 1487 1487 1487 1487 1487 1487
1504 1504 1504 1503 1502 1501 1500 1499 1498 1497 1496 1495 1494 1493 1492 1492 1491 1490 1490 1488 1487 1486 1486 1485 1484 1484 1483 1483 1483 1482 1481 1481 1482 1482 1482 1482 1482 1483 1483 1483 1483 1483 1482
1502 1502 1501 1500 1499 1498 1497 1496 1495 1494 1493 1492 1491 1490 1489 1488 1487 1486 1485 1484 1482 1482 1481 1480 1480 1479 1479 1479 1478 1478 1477 1477 1477 1477 1478 1478 1478 1479 1479 1479 1479 1479 1478
1500 1499 1499 1498 1497 1496 1495 1494 1492 1491 1490 1488 1487 1486 1485 1484 1483 1482 1480 1479 1478 1477 1476 1475 1475 1475 1474 1474 1474 1473 1473 1473 1473 1473 1472 1473 1473 1474 1474 1474 1475 1475 1474
1497 1496 1496 1495 1494 1493 1492 1490 1489 1487 1486 1485 1483 1482 1481 1480 1479 1477 1476 1475 1474 1473 1472 1471 1470 1470 1470 1470 1469 1469 1469 1469 1469 1468 1468 1468 1468 1469 1469 1469 1470 1470 1470
1494 1493 1493 1492 1491 1490 1489 1487 1485 1484 1483 1481 1480 1478 1477 1476 1475 1474 1472 1471 1470 1469 1468 1467 1467 1466 1465 1465 1465 1465 1465 1465 1464 1464 1463 1464 1464 1464 1465 1465 1465 1465 1466
1490 1490 1490 1489 1488 1487 1486 1484 1482 1481 1479 1478 1476 1475 1473 1472 1471 1470 1468 1467 1466 1465 1464 1464 1463 1462 1461 1461 1461 1461 1461 1460 1460 1460 1459 1460 1460 1460 1460 1461 1461 1461 1461
1487 1487 1486 1486 1485 1483 1482 1481 1479 1478 1477 1475 1473 1472 1470 1468 1467 1467 1465 1464 1462 1462 1461 1460 1459 1458 1457 1457 1457 1456 1456 1456 1456 1456 1456 1456 1456 1456 1456 1456 1457 1457 1457
1484 1483 1483 1482 1481 1480 1478 1477 1476 1476 1474 1472 1470 1469 1467 1466 1464 1463 1462 1461 1459 1458 1457 1456 1455 1454 1453 1453 1452 1452 1452 1452 1452 1452 1452 1452 1451 1451 1451 1452 1453 1453 1453
1481 1480 1479 1479 1478 1476 1475 1474 1472 1471 1470 1469 1467 1465 1464 1463 1461 1460 1458 1457 1456 1455 1454 1452 1451 1451 1450 1449 1449 1448 1448 1448 1448 1448 1447 1447 1448 1447 1447 1448 1448 1448 1449
1477 1477 1476 1475 1474 1473 1472 1471 1470 1468 1466 1464 1463 1462 1460 1459 1458 1456 1455 1454 1452 1452 1450 1449 1448 1448 1447 1446 1446 1445 1444 1444 1444 1444 1443 1443 1443 1443 1443 1443 1444 1444 1444
1474 1474 1473 1472 1471 1471 1470 1469 1467 1466 1464 1462 1460 1459 1457 1456 1454 1453 1452 1450 1449 1448 1447 1446 1445 1444 1444 1443 1442 1441 1441 1440 1440 1440 1439 1439 1439 1439 1439 1439 1440 1440 1440
1471 1471 1470 1469 1469 1468 1467 1466 1465 1463 1461 1459 1457 1456 1454 1453 1451 1450 1448 1447 1446 1445 1444 1443 1442 1441 1440 1439 1438 1438 1437 1436 1436 1435 1435 1435 1435 1435 1435 1436 1436 1436 1437
1467 1467 1467 1466 1465 1465 1464 1463 1462 1460 1459 1457 1456 1454 1453 1451 1449 1447 1446 1444 1443 1442 1441 1440 1439 1438 1437 1436 1435 1434 1433 1432 1432 1431 1431 1431 1431 1431 1431 1432 1432 1432 1433
1464 1464 1463 1463 1462 1462 1461 1460 1459 1458 1456 1455 1453 1452 1450 1448 1447 1445 1443 1442 1441 1440 1438 1437 1436 1435 1434 1432 1431 1431 1430 1429 1428 1428 1428 1427 1427 1427 1428 1428 1428 1428 1429
1461 1461 1460 1460 1460 1459 1458 1457 1456 1455 1454 1452 1451 1449 1447 1446 1444 1443 1441 1440 1438 1437 1436 1434 1433 1432 1430 1429 1428 1428 1427 1426 1425 1425 1424 1423 1423 1423 1424 1424 1424 1425 1425
1458 1458 1457 1457 1457 1456 1455 1454 1454 1452 1451 1450 1448 1447 1445 1444 1442 1440 1439 1438 1436 1435 1433 1432 1430 1429 1428 1427 1426 1425 1424 1423 1422 1422 1421 1421 1420 1420 1420 1420 1420 1421 1422
1455 1455 1455 1454 1454 1454 1453 1452 1451 1450 1449 1447 1446 1444 1443 1441 1440 1438 1436 1435 1434 1432 1431 1430 1428 1427 1425 1424 1423 1422 1421 1420 1419 1419 1418 1417 1417 1417 1416 1416 1417 1417 1418
1453 1453 1453 1452 1452 1451 1451 1450 1449 1447 1446 1445 1444 1442 1441 1439 1437 1435 1434 1432 1431 1429 1428 1427 1425 1424 1423 1421 1420 1419 1418 1417 1416 1416 1415 1414 1413 1413 1413 1413 1413 1414 1414